Regional Weather Roundup
Issued by NWS

Home | Current Version | Previous Version | Text Only | Print | Product List | Glossary On
Versions: 1 2 3 4 5 6 7 8 9 10 11 12 13 14 15 16 17 18 19 20 21 22 23 24 25 26 27 28 29 30 31 32 33 34 35 36 37 38 39 40 41 42 43 44 45 46 47 48 49 50
000
ASUS43 KMKX 270721
RWRWI

WISCONSIN REGIONAL WEATHER ROUNDUP
NATIONAL WEATHER SERVICE MILWAUKEE/SULLIVAN WI
200 AM CDT TUE SEP 27 2016

NOTE: "FAIR" INDICATES FEW OR NO CLOUDS BELOW 12,000 FEET WITH NO
SIGNIFICANT WEATHER AND/OR OBSTRUCTIONS TO VISIBILITY.

WIZ001-002-006>008-014>016-023>028-270800-
NORTHWEST WISCONSIN

CITY           SKY/WX    TMP DP  RH WIND       PRES   REMARKS
SUPERIOR ARPT  CLOUDY    53  44  70 NW12      29.71S
ASHLAND        LGT RAIN  50  47  89 W17G25    29.66S
HAYWARD        CLOUDY    53  41  63 W9        29.71F
SIREN          CLOUDY    52  40  64 W13       29.77S
CUMBERLAND     CLOUDY    50  37  62 W14       29.76S
RICE LAKE      CLOUDY    53  39  59 W13G21    29.77S
CHETEK         NOT AVBL
LADYSMITH      CLOUDY    54  44  67 W12       29.73F
EAU CLAIRE     CLEAR     52  41  66 W10       29.77F
MENOMONIE      CLEAR     54  40  60 W15G23    29.79F
NEW RICHMOND   CLEAR     49  40  72 W12       29.81S
OSCEOLA        CLEAR     52  41  66 W14       29.84R
$$

WIZ003>005-009-010-017-018-270800-
NORTH CENTRAL WISCONSIN

CITY           SKY/WX    TMP DP  RH WIND       PRES   REMARKS
MANITOWISH WTR NOT AVBL
ARBOR VITAE    CLOUDY    52  48  88 W8G20     29.64F
WOODRUFF       CLOUDY    52  48  88 W8G20     29.64F
RHINELANDER    CLOUDY    50  45  83 W17G24    29.66F
EAGLE RIVER    CLOUDY    48  46  95 W13G22    29.62S
LAND O LAKES   DRIZZLE   48  47  94 W13       29.62S
PHILLIPS       CLOUDY    51  43  75 W8G16     29.68S
TOMAHAWK       CLOUDY    51  42  71 W8        29.68S
MEDFORD        CLOUDY    50  41  71 W10       29.71S
MERRILL        CLOUDY    53  42  66 W14G22    29.69F
$$

WIZ029-030-035-036-043>047-270800-
CENTRAL WISCONSIN

CITY           SKY/WX    TMP DP  RH WIND       PRES   REMARKS
WAUSAU         CLOUDY    52  41  66 W12       29.69F
MOSINEE        CLOUDY    50  41  71 W16       29.73S
MARSHFIELD     MOCLDY    50  39  66 W10       29.74S
STEVENS POINT  CLOUDY    50  38  64 W12       29.74S
WAUPACA        CLOUDY    55  40  55 SW9       29.74S
WAUTOMA        CLEAR     48  39  71 W5        29.77F
WISC RAPIDS    PTCLDY    50  40  68 W9        29.77S
CAMP DOUGLAS   CLEAR     51  38  61 W14       29.79S
$$

WIZ011>013-019>022-031-037>040-048>050-270800-
NORTHEAST WISCONSIN

CITY           SKY/WX    TMP DP  RH WIND       PRES   REMARKS
ANTIGO         CLOUDY    50  42  74 W12       29.68S
SHAWANO        CLOUDY    56  42  59 W8        29.70S
OCONTO         NOT AVBL
STURGEON BAY   CLOUDY    56  43  61 W15       29.68S
GREEN BAY      CLOUDY    53  43  68 SW9       29.71F
MANITOWOC      PTCLDY    55  41  59 SW5       29.74S
APPLETON       CLOUDY    50  36  57 SW10      29.72S
CLINTONVILLE   NOT AVBL
OSHKOSH        CLOUDY    54  38  54 VRB7      29.75S
$$

WIZ032>034-041-042-053>061-270800-
SOUTHWEST WISCONSIN

CITY           SKY/WX    TMP DP  RH WIND       PRES   REMARKS
LA CROSSE      CLEAR     57  38  48 W12       29.83F
SPARTA         CLEAR     49  40  70 SW5       29.82S
VIROQUA        CLEAR     51  37  57 W8        29.85S
BOSCOBEL       CLEAR     55  37  50 SW7       29.87S
PRAIRIE DU CHI CLEAR     55  34  45 W8        29.88S
PLATTEVILLE    CLEAR     49  40  69 W7        29.89S
$$

WIZ056-057-062-063-064-067-068-270800-
SOUTH CENTRAL WISCONSIN

CITY           SKY/WX    TMP DP  RH WIND       PRES   REMARKS
REEDSBURG      NOT AVBL
BARABOO/DELLS  CLEAR     51  36  55 W7        29.82R
LONE ROCK      CLEAR     51  40  65 W6        29.86R
MINERAL POINT  CLEAR     52  36  54 W8        29.87S
MADISON        CLEAR     54  36  50 VRB5      29.83R
MIDDLETON      NOT AVBL
WATERTOWN      CLEAR     49  40  71 SW6       29.82R
MONROE         CLEAR     52  36  54 W15       29.86S
JANESVILLE     CLEAR     52  37  58 SW9       29.85S
$$

WIZ051-052-058>065-066-070>072-270800-
SOUTHEAST WISCONSIN

CITY           SKY/WX    TMP DP  RH WIND       PRES   REMARKS
MILWAUKEE      CLEAR     56  37  49 SW10      29.82S
WAUKESHA       CLEAR     50  36  57 SW9       29.83S
MILWAUKEE/TIMM CLEAR     52  36  54 SW7       29.82S
RACINE         CLEAR     51  38  60 SW7       29.84F
BURLINGTON     CLEAR     49  37  61 SW6       29.84S
KENOSHA        CLEAR     51  38  60 SW12      29.84F
FOND DU LAC    PTCLDY    52  39  61 SW9       29.77F
SHEBOYGAN      CLOUDY    52  40  63 SW12      29.76F
WEST BEND      PTCLDY    52  37  58 W8        29.79F
JUNEAU         CLEAR     48  39  70 SW8       29.81F
$$

LSZ147-162-270800-
LAKE SUPERIOR

STATION/POSITION TIME  TEMP    WIND        PRES    WAVE
                       AIR SEA DIR/SP/G            HT/PER
                 (UTC) (F)     (DEG/KT/KT) (MB)    (FT/S)
W MID LAKE BUOY  0650   50 46  250/ 17/ 21  999.4F   5/ 6
DEVILS ISLAND    0700   51     260/ 21/ 27 1002.5R
SAXON HARBOR     0600   54     250/  6/ 14 1003.7F
$$

LMZ867-665-643>646-270800-
LAKE MICHIGAN

STATION/POSITION TIME  TEMP    WIND        PRES    WAVE
                       AIR SEA DIR/SP/G            HT/PER
                 (UTC) (F)     (DEG/KT/KT) (MB)    (FT/S)
CHAMBERS ISLAND  0600   56     220/  7/ 18 1003.7F
N MID LAKE BUOY  0650   58 66  250/ 25/ 29 1001.8F   7/ 6
NORTHPORT PIER   0600   57     280/  7/ 20 1003.7F
KEWAUNEE LAKESHO 0600   56     240/  8/ 12 1005.7F
SHEBOYGAN LAKESH 0700   55     250/ 13/ 15 1007.3F
PORT WASHINGTON  0640   54     260/  6/ 10 1009.8S
ATWATER BUOY     0700   57 58  230/ 12/ 16 1009.4F
MILWAUKEE LAKESH 0610   58     250/ 11/ 13   N/A
S MID LAKE BUOY  0650   65 70  250/ 23/ 29 1008.8F   5/ 5
KENOSHA   LAKESH 0700   57     230/  8/ 11 1010.5S
$$

TC  - TEMPERATURE IN CELSIUS
VSB - VISIBILITY IN STATUTE MILES
WCI - WIND CHILL INDEX
HX  - HEAT INDEX





USA.gov is the U.S. government's official web portal to all federal, state and local government web resources and services.